Location: Blue Moon Observatory
(43.0710°N, 82.8810°W)
Time: 21:57:38
(UTC-05:00)

Amateur Radio Satellites - All Passes

Search period start: 20 November 2017 21:27
Search period end: 21 November 2017 21:27
Location: Blue Moon Observatory, 43.0710°N, 82.8810°W

Satellite Date Start Highest point End Downlink Frequencies (MHz)
Time Altitude Azimuth
nSIGHT-1 20 Nov 21:27:54 21:31:03 55° 142° (SE) 21:34:12 .
EO-88 20 Nov 21:35:35 21:39:11 71° 76° (ENE) 21:42:49 145.990 - 145.960
Max Valier Satellite 20 Nov 21:35:56 21:39:35 77° 259° (W) 21:43:15 145.860
DELFI C3 20 Nov 21:57:54 22:01:25 30° 264° (W) 22:04:58 145.870
PRISM 20 Nov 21:58:24 22:00:23 13° 91° (E) 22:02:21 437.425
LO-87 20 Nov 22:02:51 22:05:26 19° 67° (ENE) 22:08:00 145.935 - 145.965
SO-50 20 Nov 22:09:15 22:13:35 52° 119° (ESE) 22:17:58 436.795
ISS 20 Nov 22:10:04 22:13:20 75° 328° (NNW) 22:16:36 437.550
NO-84 20 Nov 22:20:20 22:24:35 68° 37° (NE) 22:28:49 435.350 FM
UNISAT 6 20 Nov 22:23:21 22:27:39 76° 101° (E) 22:31:54 437.425
TIGRISAT 20 Nov 22:27:51 22:32:09 77° 102° (ESE) 22:36:23 435.000
O/OREOS (USA 219) 20 Nov 22:28:31 22:31:44 19° 53° (NE) 22:34:55 437.305
SPROUT 20 Nov 22:50:26 22:52:36 14° 62° (ENE) 22:54:46 437.525
ESTCUBE 1 20 Nov 23:00:23 23:04:49 69° 74° (ENE) 23:09:18 437.505/2401.250
RS-15 20 Nov 23:03:06 23:13:12 28° 344° (NNW) 23:23:06 29.354- 29.394
nSIGHT-1 20 Nov 23:04:36 23:07:26 28° 340° (NNW) 23:10:16 .
FO-29 20 Nov 23:07:24 23:13:08 23° 304° (NW) 23:18:43 435.910
VELOX 1 20 Nov 23:24:10 23:27:30 21° 65° (ENE) 23:30:50 145.980
PRISM 20 Nov 23:31:53 23:35:58 55° 287° (WNW) 23:40:01 437.425
LO-87 20 Nov 23:35:28 23:38:37 28° 263° (W) 23:41:49 145.935 - 145.965
DUCHIFAT 1 20 Nov 23:46:58 23:49:49 18° 93° (E) 23:52:40 145.980
ISS 20 Nov 23:47:35 23:50:13 22° 347° (NNW) 23:52:50 437.550
SO-50 20 Nov 23:50:46 23:54:20 22° 318° (NW) 23:57:55 436.795
EO-79 20 Nov 23:53:10 23:56:46 27° 96° (E) 00:00:19 145.935-145.965
NANOSAT C BR1 20 Nov 23:56:46 00:00:17 26° 95° (E) 00:03:47 145.865
NO-84 20 Nov 23:58:29 00:01:35 20° 234° (SW) 00:04:40 435.350 FM
UNISAT 6 21 Nov 00:02:28 00:03:44 11° 300° (WNW) 00:04:58 437.425
O/OREOS (USA 219) 21 Nov 00:07:03 00:11:29 52° 252° (WSW) 00:15:51 437.305
TIGRISAT 21 Nov 00:07:05 00:08:12 11° 300° (WNW) 00:09:17 435.000
AIST 2D 21 Nov 00:07:48 00:11:16 54° 285° (WNW) 00:14:42 435.315
POLYITAN 1 21 Nov 00:08:06 00:12:02 39° 98° (E) 00:15:57 437.675
DX 1 21 Nov 00:11:45 00:14:26 16° 63° (ENE) 00:17:08 434.975-435.025
PCSat 21 Nov 00:14:04 00:19:00 37° 111° (ESE) 00:23:59 145.827
SPROUT 21 Nov 00:23:44 00:27:58 61° 259° (W) 00:32:14 437.525
QB50P2 21 Nov 00:31:12 00:35:26 82° 106° (ESE) 00:39:37 145.880/145.840
ESTCUBE 1 21 Nov 00:40:26 00:42:05 12° 271° (W) 00:43:44 437.505/2401.250
BUGSAT 1 21 Nov 00:41:22 00:43:59 17° 92° (E) 00:46:35 437.445
nSIGHT-1 21 Nov 00:42:10 00:44:25 17° 1° (N) 00:46:40 .
UKube-1 21 Nov 00:53:36 00:57:12 26° 67° (ENE) 01:00:50 .
VELOX 1 21 Nov 00:59:30 01:03:39 40° 262° (W) 01:07:52 145.980
RS-15 21 Nov 01:20:39 01:30:53 30° 20° (NNE) 01:40:40 29.354- 29.394
DUCHIFAT 1 21 Nov 01:21:45 01:25:38 39° 289° (WNW) 01:29:31 145.980
ISS 21 Nov 01:25:04 01:27:31 19° 8° (N) 01:29:57 437.550
EO-79 21 Nov 01:28:55 01:32:26 26° 292° (WNW) 01:35:56 145.935-145.965
50 SAT 21 Nov 01:29:22 01:32:34 60° 259° (W) 01:35:48 437.505
NANOSAT C BR1 21 Nov 01:32:23 01:35:56 27° 292° (WNW) 01:39:27 145.865
BEESAT 21 Nov 01:41:18 01:43:51 15° 60° (ENE) 01:46:24 436.000
POLYITAN 1 21 Nov 01:44:34 01:47:32 19° 295° (WNW) 01:50:30 437.675
DX 1 21 Nov 01:45:55 01:50:11 53° 260° (W) 01:54:30 434.975-435.025
Oscar 19 21 Nov 01:50:02 01:55:04 50° 100° (E) 02:00:04 437.125/150
ITUPSAT 1 21 Nov 01:50:08 01:53:13 17° 62° (ENE) 01:56:17 437.325
PCSat 21 Nov 01:57:28 02:02:24 35° 310° (NW) 02:07:23 145.827
MOZHAYETS 4 21 Nov 02:04:52 02:08:43 27° 67° (ENE) 02:12:35
QB50P2 21 Nov 02:10:01 02:10:33 10° 300° (WNW) 02:11:05 145.880/145.840
Gurwin Techsat 1B 21 Nov 02:12:27 02:17:43 58° 101° (E) 02:22:56 435.225
BUGSAT 1 21 Nov 02:15:44 02:19:31 39° 289° (WNW) 02:23:15 437.445
AO-7 21 Nov 02:17:27 02:20:43 13° 86° (E) 02:23:57 .
nSIGHT-1 21 Nov 02:18:29 02:21:22 29° 21° (NNE) 02:24:13 .
UKube-1 21 Nov 02:29:21 02:33:07 29° 263° (W) 02:36:55 .
ISS 21 Nov 03:01:23 03:04:34 47° 27° (NNE) 03:07:44 437.550
BEESAT 3 21 Nov 03:08:03 03:11:58 60° 120° (ESE) 03:15:56 437.485
BEESAT 21 Nov 03:16:16 03:21:01 72° 257° (WSW) 03:25:48 436.000
ITUPSAT 1 21 Nov 03:25:50 03:30:33 59° 258° (WSW) 03:35:18 437.325
M-CUBED/EXP-1 PRIME 21 Nov 03:29:55 03:34:28 79° 109° (ESE) 03:39:07 437.505
Oscar 19 21 Nov 03:30:08 03:34:02 22° 297° (WNW) 03:37:56 437.125/150
RS-15 21 Nov 03:34:12 03:46:09 68° 50° (NE) 03:57:23 29.354- 29.394
MOZHAYETS 4 21 Nov 03:41:45 03:45:47 31° 264° (W) 03:49:50
ITAMSAT 1 21 Nov 03:42:04 03:46:46 33° 97° (E) 03:51:25 435.822/435.867
CUBESAT XI-V 21 Nov 03:51:46 03:56:20 79° 76° (ENE) 04:00:58 437.345
Gurwin Techsat 1B 21 Nov 03:53:22 03:57:13 21° 298° (WNW) 04:01:01 435.225
nSIGHT-1 21 Nov 03:54:37 03:57:43 47° 218° (SW) 04:00:47 .
KKS-1 21 Nov 03:58:57 04:02:32 24° 66° (ENE) 04:06:07 437.445
AO-7 21 Nov 04:06:34 04:14:56 69° 105° (ESE) 04:23:15 .
BEESAT 2 21 Nov 04:18:46 04:22:47 84° 303° (WNW) 04:26:52 435.950
STARS 21 Nov 04:24:27 04:27:29 18° 64° (ENE) 04:30:32 437.465
DOVE 4 21 Nov 04:27:03 04:30:27 18° 89° (E) 04:33:45 437.250
YUBILEINY 21 Nov 04:28:59 04:34:55 21° 78° (ENE) 04:40:53 435.215
ISS 21 Nov 04:38:12 04:40:52 23° 224° (SW) 04:43:32 437.550
BEESAT 3 21 Nov 04:47:09 04:49:52 17° 319° (NW) 04:52:35 437.485
SO-50 21 Nov 05:00:27 05:02:30 13° 33° (NNE) 05:04:33 436.795
M-CUBED/EXP-1 PRIME 21 Nov 05:05:58 05:08:16 14° 304° (WNW) 05:10:36 437.505
AO-85 21 Nov 05:06:26 05:10:18 72° 304° (NW) 05:14:23 145.980
ITAMSAT 1 21 Nov 05:21:34 05:26:10 32° 294° (WNW) 05:30:44 435.822/435.867
CUBESAT XI-V 21 Nov 05:33:23 05:34:17 10° 272° (W) 05:35:11 437.345
KKS-1 21 Nov 05:34:47 05:38:53 35° 262° (W) 05:43:01 437.445
RS-15 21 Nov 05:47:31 05:57:49 38° 254° (WSW) 06:07:41 29.354- 29.394
KAITUO 1B 21 Nov 05:54:28 05:56:46 15° 92° (E) 05:59:05 145.475/437.950
STARS 21 Nov 05:59:12 06:03:28 47° 260° (W) 06:07:46 437.465
BEESAT 2 21 Nov 05:59:15 06:01:09 13° 323° (NW) 06:03:03 435.950
AO-7 21 Nov 06:00:08 06:07:05 31° 305° (NW) 06:14:02 .
DOVE 4 21 Nov 06:03:25 06:08:33 59° 287° (WNW) 06:13:26 437.250
XW-2D 21 Nov 06:08:05 06:11:32 32° 97° (E) 06:14:58 145.860 - 145.880
HO-68 21 Nov 06:15:16 06:19:46 17° 89° (E) 06:24:13 435.675
STRAND 1 21 Nov 06:20:03 06:24:37 33° 67° (ENE) 06:29:11 437.568
YUBILEINY 21 Nov 06:21:46 06:30:32 84° 277° (W) 06:39:25 435.215
XW-2B 21 Nov 06:22:44 06:26:25 46° 99° (E) 06:30:06 145.730 - 145.750
NUDT-PHONESAT 21 Nov 06:38:18 06:41:54 49° 100° (E) 06:45:31 437.300
SO-50 21 Nov 06:39:17 06:43:53 62° 53° (NE) 06:48:32 436.795
XW-2C 21 Nov 06:48:15 06:52:04 81° 283° (WNW) 06:55:52 145.795 - 145.815
CUTE 1.7 + AOD 2 21 Nov 06:49:54 06:53:22 23° 94° (E) 06:56:48 437.475
LilacSat-2 21 Nov 06:50:04 06:53:55 72° 283° (WNW) 06:57:44 437.200
AO-85 21 Nov 06:50:10 06:51:32 11° 327° (NNW) 06:52:55 145.980
CUTE-I 21 Nov 06:51:57 06:57:20 70° 103° (ESE) 07:02:39 437.470
XW-2F 21 Nov 06:59:06 07:02:52 64° 285° (WNW) 07:06:38 145.980 - 146.000
UWE-3 21 Nov 07:07:43 07:08:50 11° 89° (E) 07:09:56 435.000/436.395/437.385
SEEDS 21 Nov 07:20:21 07:24:08 30° 96° (E) 07:27:53 437.485
KAITUO 1B 21 Nov 07:27:23 07:30:53 37° 288° (WNW) 07:34:22 145.475/437.950
AAUSAT CUBESAT 2 21 Nov 07:28:16 07:30:55 16° 92° (E) 07:33:34 437.432
FO-29 21 Nov 07:33:32 07:39:49 45° 66° (ENE) 07:46:49 435.910
XW-2D 21 Nov 07:42:47 07:45:29 19° 293° (WNW) 07:48:11 145.860 - 145.880
CUBEBUG 2 21 Nov 07:44:39 07:48:45 52° 100° (E) 07:52:46 437.445
AO-73 21 Nov 07:48:13 07:50:34 15° 91° (E) 07:52:55 145.935
XW-2B 21 Nov 07:58:13 08:00:12 14° 295° (WNW) 08:02:11 145.730 - 145.750
STRAND 1 21 Nov 07:59:11 08:03:45 32° 264° (W) 08:08:21 437.568
HO-68 21 Nov 08:01:07 08:08:21 87° 289° (WNW) 08:15:31 435.675
XW-2A 21 Nov 08:01:44 08:04:55 40° 99° (E) 08:08:07 145.665 - 145.685
Oscar 11 21 Nov 08:04:33 08:07:13 16° 91° (E) 08:09:52 .
NUDT-PHONESAT 21 Nov 08:13:43 08:15:19 12° 296° (WNW) 08:16:55 437.300
SO-50 21 Nov 08:20:56 08:23:53 17° 250° (WSW) 08:26:51 436.795
YUBILEINY 21 Nov 08:23:00 08:28:48 19° 301° (WNW) 08:34:41 435.215
CUTE 1.7 + AOD 2 21 Nov 08:25:24 08:29:12 32° 290° (WNW) 08:32:59 437.475
ZACube-1 21 Nov 08:31:57 08:36:00 51° 100° (E) 08:40:03 437.345
CUTE-I 21 Nov 08:33:20 08:36:46 18° 300° (WNW) 08:40:13 437.470
UWE-3 21 Nov 08:41:36 08:45:42 63° 286° (WNW) 08:49:48 435.000/436.395/437.385
PRISM 21 Nov 08:49:18 08:50:45 12° 61° (ENE) 08:52:12 437.425
SEEDS 21 Nov 08:56:14 08:59:40 24° 292° (WNW) 09:03:06 437.485
PCSat 21 Nov 09:00:34 09:05:40 39° 51° (NE) 09:10:42 145.827
AAUSAT CUBESAT 2 21 Nov 09:02:35 09:06:35 44° 288° (WNW) 09:10:33 437.432
FO-29 21 Nov 09:18:54 09:24:56 37° 267° (W) 09:31:41 435.910
UNISAT 6 21 Nov 09:22:24 09:26:57 74° 75° (ENE) 09:31:26 437.425
CUBEBUG 2 21 Nov 09:22:39 09:24:56 14° 297° (WNW) 09:27:10 437.445
AO-73 21 Nov 09:23:05 09:27:03 47° 288° (WNW) 09:31:03 145.935
TIGRISAT 21 Nov 09:26:44 09:31:18 75° 76° (ENE) 09:35:47 435.000
DELFI C3 21 Nov 09:33:19 09:36:50 29° 96° (E) 09:40:19 145.870
XW-2A 21 Nov 09:35:54 09:37:15 12° 295° (WNW) 09:38:37 145.665 - 145.685
Oscar 11 21 Nov 09:39:27 09:43:36 48° 288° (WNW) 09:47:46 .
HO-68 21 Nov 09:50:22 09:55:06 19° 307° (NW) 09:59:49 435.675
ZACube-1 21 Nov 10:09:33 10:11:52 15° 296° (WNW) 10:14:11 437.345
PRISM 21 Nov 10:21:19 10:25:25 70° 258° (WSW) 10:29:35 437.425
EO-88 21 Nov 10:36:26 10:40:06 83° 106° (ESE) 10:43:45 145.990 - 145.960
Max Valier Satellite 21 Nov 10:38:17 10:41:54 63° 285° (WNW) 10:45:32 145.860
DUCHIFAT 1 21 Nov 10:39:56 10:42:31 16° 64° (ENE) 10:45:07 145.980
AIST 2D 21 Nov 10:42:18 10:45:41 54° 75° (ENE) 10:49:05 435.315
PCSat 21 Nov 10:44:08 10:48:58 33° 249° (WSW) 10:53:45 145.827
EO-79 21 Nov 10:46:25 10:49:49 24° 67° (ENE) 10:53:12 145.935-145.965
NANOSAT C BR1 21 Nov 10:49:41 10:53:01 23° 67° (ENE) 10:56:20 145.865
ESTCUBE 1 21 Nov 10:53:21 10:55:38 14° 90° (E) 10:57:54 437.505/2401.250
BEESAT 2 21 Nov 10:59:25 11:01:00 12° 36° (NE) 11:02:34 435.950
POLYITAN 1 21 Nov 11:01:16 11:05:05 33° 70° (ENE) 11:08:54 437.675
LO-87 21 Nov 11:01:21 11:03:55 19° 94° (E) 11:06:27 145.935 - 145.965
UNISAT 6 21 Nov 11:02:42 11:04:07 11° 271° (W) 11:05:32 437.425
TIGRISAT 21 Nov 11:07:09 11:08:27 11° 271° (W) 11:09:45 435.000
FALCONSAT 3 21 Nov 11:08:06 11:10:58 21° 170° (S) 11:13:51 435.103
DELFI C3 21 Nov 11:08:16 11:11:25 23° 293° (WNW) 11:14:33 145.870
BEESAT 3 21 Nov 11:23:45 11:27:34 46° 51° (NE) 11:31:19 437.485
QB50P2 21 Nov 11:24:07 11:28:19 67° 75° (ENE) 11:32:32 145.880/145.840
BUGSAT 1 21 Nov 11:32:15 11:34:39 15° 64° (ENE) 11:37:02 437.445
Oscar 19 21 Nov 11:32:44 11:34:22 11° 56° (ENE) 11:36:00 437.125/150
AO-85 21 Nov 11:56:09 11:59:35 20° 42° (NE) 12:03:10 145.980
Gurwin Techsat 1B 21 Nov 11:57:37 12:00:31 15° 58° (ENE) 12:03:25 435.225
SPROUT 21 Nov 12:08:55 12:12:06 20° 93° (E) 12:15:15 437.525
DUCHIFAT 1 21 Nov 12:13:42 12:17:47 49° 261° (W) 12:21:53 145.980
EO-79 21 Nov 12:21:38 12:25:25 31° 263° (W) 12:29:13 145.935-145.965
NANOSAT C BR1 21 Nov 12:24:43 12:28:32 32° 263° (W) 12:32:22 145.865
ESTCUBE 1 21 Nov 12:28:21 12:32:50 61° 286° (WNW) 12:37:17 437.505/2401.250
LO-87 21 Nov 12:34:18 12:37:19 26° 290° (WNW) 12:40:18 145.935 - 145.965
BEESAT 2 21 Nov 12:35:23 12:39:27 76° 57° (ENE) 12:43:25 435.950
POLYITAN 1 21 Nov 12:37:36 12:40:54 22° 266° (W) 12:44:13 437.675
O/OREOS (USA 219) 21 Nov 12:42:42 12:45:29 16° 99° (E) 12:48:15 437.305
M-CUBED/EXP-1 PRIME 21 Nov 12:45:49 12:46:30 10° 54° (NE) 12:47:12 437.505
FALCONSAT 3 21 Nov 12:46:30 12:49:30 24° 186° (S) 12:52:31 435.103
VELOX 1 21 Nov 12:48:14 12:52:18 34° 97° (E) 12:56:20 145.980
BEESAT 3 21 Nov 13:02:14 13:04:44 16° 249° (WSW) 13:07:12 437.485
QB50P2 21 Nov 13:03:21 13:04:32 11° 271° (W) 13:05:44 145.880/145.840
BUGSAT 1 21 Nov 13:05:28 13:09:35 52° 260° (W) 13:13:40 437.445
Oscar 19 21 Nov 13:07:44 13:12:50 81° 73° (ENE) 13:17:59 437.125/150
AO-7 21 Nov 13:16:34 13:22:50 25° 51° (NE) 13:29:06 .
DX 1 21 Nov 13:33:26 13:36:59 23° 95° (E) 13:40:30 434.975-435.025
Gurwin Techsat 1B 21 Nov 13:34:26 13:39:45 82° 258° (WSW) 13:45:07 435.225
AO-85 21 Nov 13:35:43 13:40:24 70° 239° (WSW) 13:45:25 145.980
SPROUT 21 Nov 13:44:12 13:48:05 36° 290° (WNW) 13:51:57 437.525
UKube-1 21 Nov 14:14:37 14:18:43 40° 99° (E) 14:22:46 .
BEESAT 2 21 Nov 14:16:08 14:16:30 10° 253° (WSW) 14:16:53 435.950
M-CUBED/EXP-1 PRIME 21 Nov 14:16:41 14:20:13 72° 253° (WSW) 14:24:05 437.505
50 SAT 21 Nov 14:17:32 14:20:47 85° 273° (W) 14:23:58 437.505
O/OREOS (USA 219) 21 Nov 14:19:54 14:24:24 54° 296° (WNW) 14:28:56 437.305
VELOX 1 21 Nov 14:24:59 14:28:34 24° 294° (WNW) 14:32:08 145.980
FALCONSAT 3 21 Nov 14:26:08 14:27:56 13° 201° (SSW) 14:29:44 435.103
YUBILEINY 21 Nov 14:38:50 14:40:10 10° 50° (NE) 14:41:29 435.215
Oscar 19 21 Nov 14:50:42 14:52:46 12° 271° (W) 14:54:50 437.125/150
ITAMSAT 1 21 Nov 15:00:41 15:05:48 57° 71° (ENE) 15:10:56 435.822/435.867
AO-7 21 Nov 15:06:22 15:14:39 85° 252° (WSW) 15:23:01 .
DX 1 21 Nov 15:09:15 15:13:11 33° 291° (WNW) 15:17:06 434.975-435.025
NO-84 21 Nov 15:12:41 15:16:08 42° 132° (SE) 15:19:52 435.350 FM
BEESAT 21 Nov 15:15:45 15:19:44 26° 95° (E) 15:23:41 436.000
ITUPSAT 1 21 Nov 15:25:27 15:29:42 32° 97° (E) 15:33:55 437.325
DOVE 4 21 Nov 15:32:48 15:36:31 21° 63° (ENE) 15:40:19 437.250
MOZHAYETS 4 21 Nov 15:34:54 15:39:24 55° 100° (E) 15:43:52
CUBESAT XI-V 21 Nov 15:48:05 15:51:21 19° 92° (E) 15:54:37 437.345
UKube-1 21 Nov 15:51:17 15:54:27 20° 295° (WNW) 15:57:36 .
YUBILEINY 21 Nov 16:30:54 16:39:31 52° 75° (ENE) 16:48:02 435.215
CUTE-I 21 Nov 16:37:01 16:40:35 18° 60° (ENE) 16:44:09 437.470
ITAMSAT 1 21 Nov 16:42:00 16:45:37 19° 268° (W) 16:49:14 435.822/435.867
HO-68 21 Nov 16:46:25 16:50:37 17° 51° (NE) 16:54:48 435.675
NO-84 21 Nov 16:50:06 16:53:35 32° 333° (NNW) 16:57:17 435.350 FM
XW-2D 21 Nov 16:50:41 16:53:18 18° 67° (ENE) 16:55:56 145.860 - 145.880
BEESAT 21 Nov 16:53:14 16:57:32 35° 292° (WNW) 17:01:49 436.000
ITUPSAT 1 21 Nov 17:03:21 17:07:26 29° 294° (WNW) 17:11:30 437.325
AO-7 21 Nov 17:03:29 17:08:33 17° 271° (W) 17:13:39 .
XW-2B 21 Nov 17:04:58 17:08:03 25° 69° (ENE) 17:11:11 145.730 - 145.750
DOVE 4 21 Nov 17:08:46 17:13:42 55° 261° (W) 17:18:52 437.250
MOZHAYETS 4 21 Nov 17:13:14 17:16:06 17° 297° (WNW) 17:18:59
NUDT-PHONESAT 21 Nov 17:18:17 17:21:17 25° 69° (ENE) 17:24:18 437.300
KKS-1 21 Nov 17:24:18 17:28:30 39° 98° (E) 17:32:39 437.445
CUBESAT XI-V 21 Nov 17:24:27 17:28:57 48° 288° (WNW) 17:33:28 437.345
XW-2C 21 Nov 17:29:58 17:33:35 51° 74° (ENE) 17:37:14 145.795 - 145.815
LilacSat-2 21 Nov 17:32:23 17:36:04 60° 75° (ENE) 17:39:49 437.200
XW-2F 21 Nov 17:40:13 17:43:54 65° 75° (ENE) 17:47:35 145.980 - 146.000
CUTE 1.7 + AOD 2 21 Nov 17:43:48 17:46:47 19° 65° (ENE) 17:49:46 437.475
STARS 21 Nov 17:47:38 17:51:24 27° 96° (E) 17:55:09 437.465
RS-15 21 Nov 17:58:28 18:09:16 38° 106° (ESE) 18:20:03 29.354- 29.394
UWE-3 21 Nov 18:05:37 18:07:18 12° 62° (ENE) 18:08:59 435.000/436.395/437.385
KAITUO 1B 21 Nov 18:07:23 18:11:02 74° 258° (WSW) 18:14:45 145.475/437.950
SEEDS 21 Nov 18:13:00 18:16:20 24° 68° (ENE) 18:19:41 437.485
CUTE-I 21 Nov 18:14:44 18:20:04 67° 258° (WSW) 18:25:26 437.470
AAUSAT CUBESAT 2 21 Nov 18:20:06 18:21:58 13° 62° (ENE) 18:23:50 437.432
XW-2D 21 Nov 18:23:55 18:27:15 31° 263° (W) 18:30:37 145.860 - 145.880
YUBILEINY 21 Nov 18:28:11 18:35:59 37° 275° (W) 18:43:45 435.215
NO-84 21 Nov 18:29:23 18:31:57 16° 354° (N) 18:34:37 435.350 FM
HO-68 21 Nov 18:30:01 18:37:11 76° 71° (ENE) 18:44:24 435.675
XW-2A 21 Nov 18:34:26 18:36:30 16° 67° (ENE) 18:38:36 145.665 - 145.685
XW-2B 21 Nov 18:39:14 18:42:11 22° 266° (W) 18:45:10 145.730 - 145.750
CUBEBUG 2 21 Nov 18:42:56 18:47:22 50° 73° (ENE) 18:51:40 437.445
AO-73 21 Nov 18:45:00 18:47:17 14° 63° (ENE) 18:49:32 145.935
NUDT-PHONESAT 21 Nov 18:52:14 18:55:04 21° 265° (W) 18:57:57 437.300
Oscar 11 21 Nov 19:00:49 19:03:09 15° 63° (ENE) 19:05:30 .
KKS-1 21 Nov 19:01:23 19:04:47 22° 295° (WNW) 19:08:10 437.445
XW-2C 21 Nov 19:07:01 19:08:04 11° 270° (W) 19:09:08 145.795 - 145.815
CUTE 1.7 + AOD 2 21 Nov 19:18:24 19:22:19 39° 262° (W) 19:26:18 437.475
STARS 21 Nov 19:23:54 19:27:41 29° 293° (WNW) 19:31:26 437.465
ZACube-1 21 Nov 19:28:15 19:32:21 44° 73° (ENE) 19:36:24 437.345
UWE-3 21 Nov 19:38:45 19:43:12 73° 258° (WSW) 19:47:33 435.000/436.395/437.385
SEEDS 21 Nov 19:48:12 19:51:53 30° 264° (W) 19:55:35 437.485
AAUSAT CUBESAT 2 21 Nov 19:52:49 19:56:53 61° 259° (W) 20:01:01 437.432
XW-2A 21 Nov 20:06:05 20:08:59 28° 263° (W) 20:11:54 145.665 - 145.685
NO-84 21 Nov 20:07:32 20:10:35 19° 15° (NNE) 20:13:42 435.350 FM
STRAND 1 21 Nov 20:07:52 20:13:01 81° 104° (ESE) 20:18:07 437.568
RS-15 21 Nov 20:08:43 20:21:01 71° 309° (NW) 20:33:17 29.354- 29.394
AO-73 21 Nov 20:18:50 20:23:04 57° 260° (W) 20:27:14 145.935
DELFI C3 21 Nov 20:19:42 20:22:35 20° 66° (ENE) 20:25:29 145.870
HO-68 21 Nov 20:20:27 20:25:36 21° 269° (W) 20:30:47 435.675
CUBEBUG 2 21 Nov 20:21:17 20:24:12 17° 268° (W) 20:27:05 437.445
FO-29 21 Nov 20:26:37 20:33:55 40° 94° (E) 20:40:47 435.910
nSIGHT-1 21 Nov 20:32:32 20:35:18 27° 137° (SE) 20:38:05 .
Oscar 11 21 Nov 20:34:36 20:38:49 57° 260° (W) 20:43:03 .
SO-50 21 Nov 20:56:26 20:58:53 15° 109° (ESE) 21:01:20 436.795
ZACube-1 21 Nov 21:06:04 21:08:50 17° 268° (W) 21:11:35 437.345
EO-88 21 Nov 21:14:36 21:17:57 37° 72° (ENE) 21:21:19 145.990 - 145.960
UNISAT 6 21 Nov 21:14:45 21:16:48 13° 90° (E) 21:18:52 437.425
Max Valier Satellite 21 Nov 21:17:22 21:20:58 60° 74° (ENE) 21:24:35 145.860
ISS 21 Nov 21:17:51 21:21:05 60° 143° (SE) 21:24:19 437.550
TIGRISAT 21 Nov 21:18:55 21:20:59 13° 90° (E) 21:23:04 435.000
